| time (UTC) | temp F | wind direction | speed MPH | gust MPH | rain 1hr in | rain 24hr in | rain mn in | humidity % | barometer mb |
| 20260507042220 | 37 | 99 | 0.0 | 0.0 | 0.00 | 0.00 | 0.00 | 79 | 1015.1 |
| 20260507041718 | 37 | 99 | 0.0 | 0.0 | 0.00 | 0.00 | 0.00 | 78 | 1015.1 |
| 20260507041215 | 37 | 99 | 0.0 | 0.0 | 0.00 | 0.00 | 0.00 | 77 | 1015.3 |
| 20260507040712 | 38 | 99 | 0.0 | 0.0 | 0.00 | 0.00 | 0.00 | 75 | 1015.0 |
| 20260507040207 | 39 | 99 | 0.0 | 0.0 | 0.00 | 0.00 | 0.00 | 74 | 1015.3 |
| 20260507035704 | 39 | 99 | 0.0 | 0.0 | 0.00 | 0.00 | 0.00 | 73 | 1015.2 |
| 20260507035159 | 39 | 101 | 0.0 | 0.0 | 0.00 | 0.00 | 0.00 | 71 | 1015.2 |
| 20260507034656 | 39 | 100 | 0.0 | 0.0 | 0.00 | 0.00 | 0.00 | 71 | 1015.1 |
| 20260507034154 | 39 | 100 | 0.0 | 0.0 | 0.00 | 0.00 | 0.00 | 71 | 1015.1 |
| 20260507033652 | 40 | 100 | 0.0 | 0.0 | 0.00 | 0.00 | 0.00 | 70 | 1014.9 |
| 20260507033149 | 40 | 99 | 0.0 | 0.0 | 0.00 | 0.00 | 0.00 | 69 | 1015.2 |
| 20260507032647 | 40 | 99 | 0.0 | 0.0 | 0.00 | 0.00 | 0.00 | 70 | 1015.3 |
| 20260507032142 | 40 | 96 | 0.0 | 0.0 | 0.00 | 0.00 | 0.00 | 69 | 1015.3 |
| 20260507031639 | 40 | 99 | 0.0 | 0.0 | 0.00 | 0.00 | 0.00 | 68 | 1015.3 |
| 20260507031136 | 40 | 99 | 0.0 | 0.0 | 0.00 | 0.00 | 0.00 | 68 | 1015.2 |
| 20260507030633 | 41 | 99 | 0.0 | 0.0 | 0.00 | 0.00 | 0.00 | 67 | 1015.2 |
| 20260507030131 | 41 | 99 | 0.0 | 0.0 | 0.00 | 0.00 | 0.00 | 66 | 1015.2 |
| 20260507025627 | 41 | 99 | 0.0 | 0.0 | 0.00 | 0.00 | 0.00 | 65 | 1015.0 |
| 20260507025124 | 41 | 99 | 0.0 | 0.0 | 0.00 | 0.00 | 0.00 | 65 | 1015.2 |
| 20260507024622 | 42 | 99 | 0.0 | 0.0 | 0.00 | 0.00 | 0.00 | 65 | 1014.9 |
| 20260507024119 | 42 | 105 | 0.0 | 0.0 | 0.00 | 0.00 | 0.00 | 65 | 1015.1 |
| 20260507023615 | 42 | 105 | 0.0 | 0.0 | 0.00 | 0.00 | 0.00 | 64 | 1014.9 |
| 20260507023112 | 42 | 99 | 0.0 | 0.0 | 0.00 | 0.00 | 0.00 | 64 | 1014.9 |
| 20260507022609 | 42 | 111 | 0.0 | 0.0 | 0.00 | 0.00 | 0.00 | 65 | 1014.9 |
| 20260507022105 | 42 | 95 | 0.0 | 0.0 | 0.00 | 0.00 | 0.00 | 64 | 1015.0 |
| 20260507021601 | 42 | 95 | 0.0 | 0.0 | 0.00 | 0.00 | 0.00 | 64 | 1014.6 |
| 20260507021057 | 43 | 93 | 0.0 | 0.0 | 0.00 | 0.00 | 0.00 | 64 | 1014.7 |
| 20260507020556 | 44 | 89 | 0.0 | 0.0 | 0.00 | 0.00 | 0.00 | 64 | 1014.6 |
| 20260507020051 | 44 | 98 | 0.0 | 0.0 | 0.00 | 0.00 | 0.00 | 62 | 1014.4 |
| 20260507015550 | 45 | 90 | 0.0 | 0.0 | 0.00 | 0.00 | 0.00 | 60 | 1014.6 |
| 20260507015047 | 45 | 84 | 0.0 | 1.0 | 0.00 | 0.00 | 0.00 | 59 | 1014.4 |
| 20260507014543 | 46 | 70 | 0.0 | 1.0 | 0.00 | 0.00 | 0.00 | 57 | 1014.3 |
| 20260507014039 | 46 | 66 | 1.0 | 1.0 | 0.00 | 0.00 | 0.00 | 55 | 1014.4 |
| 20260507013536 | 46 | 84 | 1.0 | 1.0 | 0.00 | 0.00 | 0.00 | 55 | 1014.4 |
| 20260507013034 | 47 | 108 | 0.0 | 2.0 | 0.00 | 0.00 | 0.00 | 53 | 1014.4 |
| 20260507012531 | 47 | 50 | 2.0 | 2.0 | 0.00 | 0.00 | 0.00 | 55 | 1014.3 |
| 20260507012026 | 47 | 69 | 2.0 | 3.0 | 0.00 | 0.00 | 0.00 | 53 | 1014.1 |
| 20260507011524 | 47 | 338 | 3.0 | 5.0 | 0.00 | 0.00 | 0.00 | 52 | 1014.4 |
| 20260507011020 | 47 | 154 | 1.0 | 3.0 | 0.00 | 0.00 | 0.00 | 53 | 1014.6 |
| 20260507010515 | 48 | 115 | 2.0 | 3.0 | 0.00 | 0.00 | 0.00 | 53 | 1014.4 |
| 20260507010012 | 48 | 69 | 2.0 | 3.0 | 0.00 | 0.00 | 0.00 | 52 | 1014.3 |
| 20260507005509 | 48 | 242 | 3.0 | 6.0 | 0.00 | 0.00 | 0.00 | 52 | 1014.1 |
| 20260507005005 | 48 | 63 | 3.0 | 5.0 | 0.00 | 0.00 | 0.00 | 51 | 1014.3 |
| 20260507004502 | 48 | 296 | 1.0 | 2.0 | 0.00 | 0.00 | 0.00 | 52 | 1014.2 |
| 20260507004000 | 49 | 112 | 1.0 | 2.0 | 0.00 | 0.00 | 0.00 | 51 | 1014.1 |
| 20260507003455 | 49 | 359 | 3.0 | 6.0 | 0.00 | 0.00 | 0.00 | 48 | 1014.1 |
| 20260507002950 | 49 | 258 | 4.0 | 5.0 | 0.00 | 0.00 | 0.00 | 50 | 1014.1 |
| 20260507002447 | 50 | 334 | 5.0 | 7.0 | 0.00 | 0.00 | 0.00 | 47 | 1014.0 |
| 20260507001944 | 50 | 314 | 3.0 | 6.0 | 0.00 | 0.00 | 0.00 | 48 | 1014.2 |
| 20260507001440 | 50 | 81 | 3.0 | 10.0 | 0.00 | 0.00 | 0.00 | 48 | 1013.9 |
| 20260507000938 | 50 | 0 | 4.0 | 7.0 | 0.00 | 0.00 | 0.00 | 48 | 1013.9 |
| 20260507000435 | 50 | 11 | 4.0 | 7.0 | 0.00 | 0.00 | 0.00 | 48 | 1013.8 |
| 20260506235929 | 50 | 7 | 3.0 | 8.0 | 0.00 | 0.00 | 0.00 | 49 | 1013.9 |
| 20260506235427 | 50 | 337 | 4.0 | 6.0 | 0.00 | 0.00 | 0.00 | 49 | 1013.8 |
| 20260506234921 | 51 | 262 | 3.0 | 6.0 | 0.00 | 0.00 | 0.00 | 48 | 1013.8 |
| 20260506234420 | 51 | 273 | 4.0 | 6.0 | 0.00 | 0.00 | 0.00 | 48 | 1013.8 |
| 20260506233917 | 52 | 41 | 3.0 | 10.0 | 0.00 | 0.00 | 0.00 | 47 | 1013.7 |
| 20260506233414 | 52 | 18 | 4.0 | 8.0 | 0.00 | 0.00 | 0.00 | 51 | 1013.5 |
| 20260506232910 | 52 | 270 | 3.0 | 5.0 | 0.00 | 0.00 | 0.00 | 49 | 1013.6 |
| 20260506232406 | 52 | 288 | 3.0 | 6.0 | 0.00 | 0.00 | 0.00 | 48 | 1013.3 |
| 20260506231902 | 52 | 339 | 2.0 | 2.0 | 0.00 | 0.00 | 0.00 | 49 | 1013.5 |
| 20260506231400 | 52 | 189 | 3.0 | 5.0 | 0.00 | 0.00 | 0.00 | 48 | 1013.5 |
| 20260506230857 | 53 | 261 | 3.0 | 7.0 | 0.00 | 0.00 | 0.00 | 48 | 1013.5 |
| 20260506230354 | 53 | 275 | 4.0 | 6.0 | 0.00 | 0.00 | 0.00 | 47 | 1013.6 |
| 20260506225850 | 53 | 264 | 4.0 | 5.0 | 0.00 | 0.00 | 0.00 | 47 | 1013.2 |
| 20260506225348 | 53 | 78 | 2.0 | 7.0 | 0.00 | 0.00 | 0.00 | 48 | 1013.1 |
| 20260506224844 | 53 | 63 | 3.0 | 10.0 | 0.00 | 0.00 | 0.00 | 46 | 1013.1 |
| 20260506224342 | 53 | 273 | 2.0 | 3.0 | 0.00 | 0.00 | 0.00 | 50 | 1013.5 |
| 20260506223838 | 53 | 269 | 7.0 | 8.0 | 0.00 | 0.00 | 0.00 | 47 | 1013.3 |
| 20260506223333 | 53 | 52 | 3.0 | 3.0 | 0.00 | 0.00 | 0.00 | 49 | 1013.0 |
| 20260506222830 | 53 | 59 | 1.0 | 7.0 | 0.00 | 0.00 | 0.00 | 48 | 1012.9 |
| 20260506222326 | 53 | 359 | 5.0 | 7.0 | 0.00 | 0.00 | 0.00 | 46 | 1013.1 |
| 20260506221819 | 53 | 299 | 5.0 | 6.0 | 0.00 | 0.00 | 0.00 | 47 | 1013.1 |
| 20260506221316 | 54 | 7 | 5.0 | 8.0 | 0.00 | 0.00 | 0.00 | 48 | 1013.1 |
| 20260506220813 | 55 | 170 | 1.0 | 8.0 | 0.00 | 0.00 | 0.00 | 46 | 1013.3 |
| 20260506220308 | 55 | 352 | 3.0 | 5.0 | 0.00 | 0.00 | 0.00 | 44 | 1012.7 |
| 20260506215805 | 54 | 11 | 5.0 | 13.0 | 0.00 | 0.00 | 0.00 | 45 | 1012.9 |
| 20260506215301 | 54 | 342 | 2.0 | 7.0 | 0.00 | 0.00 | 0.00 | 45 | 1012.9 |
| 20260506214757 | 54 | 284 | 4.0 | 6.0 | 0.00 | 0.00 | 0.00 | 46 | 1013.0 |
| 20260506214254 | 56 | 277 | 4.0 | 6.0 | 0.00 | 0.00 | 0.00 | 44 | 1013.0 |
| 20260506213752 | 56 | 355 | 6.0 | 8.0 | 0.00 | 0.00 | 0.00 | 44 | 1012.8 |
| 20260506213249 | 56 | 356 | 4.0 | 6.0 | 0.00 | 0.00 | 0.00 | 45 | 1012.8 |
| 20260506212746 | 57 | 268 | 3.0 | 5.0 | 0.00 | 0.00 | 0.00 | 46 | 1012.8 |
| 20260506212242 | 57 | 335 | 3.0 | 6.0 | 0.00 | 0.00 | 0.00 | 43 | 1012.7 |
| 20260506211737 | 56 | 276 | 4.0 | 6.0 | 0.00 | 0.00 | 0.00 | 44 | 1012.9 |
| 20260506211234 | 56 | 315 | 6.0 | 7.0 | 0.00 | 0.00 | 0.00 | 46 | 1012.6 |
| 20260506210731 | 54 | 357 | 2.0 | 5.0 | 0.00 | 0.00 | 0.00 | 49 | 1012.8 |
| 20260506210228 | 56 | 244 | 3.0 | 8.0 | 0.00 | 0.00 | 0.00 | 46 | 1012.7 |
| 20260506205725 | 58 | 91 | 2.0 | 6.0 | 0.00 | 0.00 | 0.00 | 45 | 1012.7 |
| 20260506205220 | 59 | 266 | 1.0 | 8.0 | 0.00 | 0.00 | 0.00 | 46 | 1012.6 |
| 20260506204718 | 59 | 145 | 7.0 | 9.0 | 0.00 | 0.00 | 0.00 | 40 | 1012.9 |
| 20260506204215 | 58 | 329 | 4.0 | 6.0 | 0.00 | 0.00 | 0.00 | 42 | 1012.7 |
| 20260506203713 | 56 | 269 | 4.0 | 6.0 | 0.00 | 0.00 | 0.00 | 42 | 1012.8 |
| 20260506203210 | 56 | 308 | 3.0 | 6.0 | 0.00 | 0.00 | 0.00 | 46 | 1012.8 |
| 20260506202707 | 58 | 271 | 2.0 | 5.0 | 0.00 | 0.00 | 0.00 | 46 | 1012.8 |
| 20260506202203 | 58 | 107 | 5.0 | 8.0 | 0.00 | 0.00 | 0.00 | 40 | 1013.0 |
| 20260506201701 | 57 | 123 | 3.0 | 5.0 | 0.00 | 0.00 | 0.00 | 39 | 1012.7 |
| 20260506201156 | 57 | 205 | 4.0 | 9.0 | 0.00 | 0.00 | 0.00 | 38 | 1013.0 |
| 20260506200654 | 56 | 163 | 1.0 | 2.0 | 0.00 | 0.00 | 0.00 | 44 | 1013.0 |
| 20260506200150 | 58 | 6 | 1.0 | 3.0 | 0.00 | 0.00 | 0.00 | 41 | 1013.1 |
| 20260506195647 | 58 | 287 | 6.0 | 7.0 | 0.00 | 0.00 | 0.00 | 40 | 1013.3 |
| 20260506195143 | 58 | 104 | 2.0 | 3.0 | 0.00 | 0.00 | 0.00 | 41 | 1013.2 |
| 20260506194641 | 57 | 277 | 4.0 | 7.0 | 0.00 | 0.00 | 0.00 | 44 | 1013.2 |
| 20260506194137 | 59 | 274 | 3.0 | 7.0 | 0.00 | 0.00 | 0.00 | 38 | 1013.2 |
| 20260506193635 | 58 | 142 | 2.0 | 5.0 | 0.00 | 0.00 | 0.00 | 44 | 1013.3 |
| 20260506193132 | 58 | 50 | 2.0 | 11.0 | 0.00 | 0.00 | 0.00 | 38 | 1013.2 |
| 20260506192628 | 58 | 358 | 3.0 | 5.0 | 0.00 | 0.00 | 0.00 | 41 | 1013.1 |
| 20260506192124 | 57 | 307 | 3.0 | 6.0 | 0.00 | 0.00 | 0.00 | 41 | 1013.3 |
| 20260506191621 | 58 | 260 | 3.0 | 7.0 | 0.00 | 0.00 | 0.00 | 45 | 1013.1 |
| 20260506191117 | 57 | 134 | 2.0 | 6.0 | 0.00 | 0.00 | 0.00 | 40 | 1013.1 |
| 20260506190615 | 57 | 346 | 4.0 | 6.0 | 0.00 | 0.00 | 0.00 | 45 | 1013.3 |
| 20260506190112 | 56 | 251 | 2.0 | 5.0 | 0.00 | 0.00 | 0.00 | 43 | 1013.1 |
| 20260506185609 | 55 | 120 | 1.0 | 5.0 | 0.00 | 0.00 | 0.00 | 44 | 1013.0 |
| 20260506185105 | 54 | 73 | 2.0 | 6.0 | 0.00 | 0.00 | 0.00 | 44 | 1013.1 |
| 20260506184602 | 56 | 92 | 2.0 | 5.0 | 0.00 | 0.00 | 0.00 | 42 | 1013.4 |
| 20260506184100 | 56 | 181 | 1.0 | 3.0 | 0.00 | 0.00 | 0.00 | 46 | 1013.3 |
| 20260506183556 | 55 | 46 | 2.0 | 3.0 | 0.00 | 0.00 | 0.00 | 44 | 1013.2 |
| 20260506183052 | 55 | 25 | 2.0 | 3.0 | 0.00 | 0.00 | 0.00 | 43 | 1013.3 |
| 20260506182550 | 53 | 298 | 3.0 | 6.0 | 0.00 | 0.00 | 0.00 | 45 | 1013.1 |
| 20260506182047 | 54 | 9 | 4.0 | 5.0 | 0.00 | 0.00 | 0.00 | 45 | 1013.4 |
| 20260506181545 | 55 | 348 | 3.0 | 6.0 | 0.00 | 0.00 | 0.00 | 44 | 1013.3 |
| 20260506181041 | 55 | 288 | 3.0 | 3.0 | 0.00 | 0.00 | 0.00 | 45 | 1013.1 |
| 20260506180538 | 53 | 75 | 1.0 | 2.0 | 0.00 | 0.00 | 0.00 | 43 | 1013.0 |
| 20260506180035 | 54 | 172 | 3.0 | 5.0 | 0.00 | 0.00 | 0.00 | 44 | 1013.1 |
| 20260506175531 | 54 | 137 | 1.0 | 6.0 | 0.00 | 0.00 | 0.00 | 48 | 1013.4 |
| 20260506175028 | 54 | 302 | 2.0 | 3.0 | 0.00 | 0.00 | 0.00 | 44 | 1013.3 |
| 20260506174527 | 54 | 358 | 3.0 | 3.0 | 0.00 | 0.00 | 0.00 | 46 | 1013.4 |
| 20260506174022 | 54 | 247 | 1.0 | 2.0 | 0.00 | 0.00 | 0.00 | 46 | 1013.4 |
| 20260506173520 | 53 | 268 | 2.0 | 3.0 | 0.00 | 0.00 | 0.00 | 46 | 1013.5 |
| 20260506173017 | 54 | 285 | 2.0 | 3.0 | 0.00 | 0.00 | 0.00 | 50 | 1013.6 |
| 20260506172514 | 54 | 314 | 2.0 | 5.0 | 0.00 | 0.00 | 0.00 | 46 | 1013.5 |
| 20260506172010 | 54 | 356 | 4.0 | 6.0 | 0.00 | 0.00 | 0.00 | 43 | 1013.5 |
| 20260506171508 | 54 | 65 | 3.0 | 6.0 | 0.00 | 0.00 | 0.00 | 45 | 1013.7 |
| 20260506171005 | 55 | 119 | 1.0 | 2.0 | 0.00 | 0.00 | 0.00 | 43 | 1013.4 |
| 20260506170501 | 54 | 33 | 2.0 | 3.0 | 0.00 | 0.00 | 0.00 | 45 | 1013.5 |
| 20260506165954 | 54 | 323 | 3.0 | 6.0 | 0.00 | 0.00 | 0.00 | 46 | 1013.7 |
| 20260506165452 | 54 | 7 | 2.0 | 3.0 | 0.00 | 0.00 | 0.00 | 44 | 1013.7 |
| 20260506164942 | 56 | 271 | 5.0 | 6.0 | 0.00 | 0.00 | 0.00 | 42 | 1013.7 |
| 20260506164439 | 55 | 330 | 2.0 | 7.0 | 0.00 | 0.00 | 0.00 | 45 | 1013.6 |
| 20260506163937 | 53 | 78 | 3.0 | 3.0 | 0.00 | 0.00 | 0.00 | 47 | 1013.4 |
| 20260506163432 | 53 | 293 | 4.0 | 5.0 | 0.00 | 0.00 | 0.00 | 46 | 1013.4 |
| 20260506162927 | 54 | 350 | 2.0 | 3.0 | 0.00 | 0.00 | 0.00 | 46 | 1013.5 |
| 20260506162424 | 53 | 268 | 3.0 | 5.0 | 0.00 | 0.00 | 0.00 | 45 | 1013.5 |
| 20260506161916 | 54 | 52 | 2.0 | 6.0 | 0.00 | 0.00 | 0.00 | 45 | 1013.6 |
| 20260506161414 | 54 | 132 | 2.0 | 6.0 | 0.00 | 0.00 | 0.00 | 50 | 1013.4 |
| 20260506160906 | 54 | 269 | 3.0 | 6.0 | 0.00 | 0.00 | 0.00 | 44 | 1013.5 |
| 20260506160402 | 54 | 108 | 1.0 | 3.0 | 0.00 | 0.00 | 0.00 | 51 | 1013.4 |
| 20260506155900 | 53 | 325 | 4.0 | 5.0 | 0.00 | 0.00 | 0.00 | 46 | 1013.5 |
| 20260506155356 | 54 | 266 | 3.0 | 7.0 | 0.00 | 0.00 | 0.00 | 48 | 1013.5 |
| 20260506153514 | 54 | 205 | 3.0 | 5.0 | 0.00 | 0.00 | 0.00 | 43 | 1013.4 |
| 20260506153011 | 53 | 39 | 1.0 | 5.0 | 0.00 | 0.00 | 0.00 | 49 | 1013.7 |
| 20260506152508 | 52 | 168 | 1.0 | 3.0 | 0.00 | 0.00 | 0.00 | 49 | 1013.6 |
| 20260506152006 | 52 | 95 | 2.0 | 5.0 | 0.00 | 0.00 | 0.00 | 47 | 1013.7 |
| 20260506151503 | 53 | 104 | 2.0 | 3.0 | 0.00 | 0.00 | 0.00 | 46 | 1013.8 |
| 20260506151001 | 53 | 155 | 2.0 | 3.0 | 0.00 | 0.00 | 0.00 | 46 | 1013.6 |
| 20260506150457 | 53 | 268 | 3.0 | 3.0 | 0.00 | 0.00 | 0.00 | 47 | 1013.6 |
| 20260506145954 | 53 | 97 | 1.0 | 3.0 | 0.00 | 0.00 | 0.00 | 46 | 1013.6 |
| 20260506145450 | 53 | 42 | 2.0 | 2.0 | 0.00 | 0.00 | 0.00 | 47 | 1013.7 |
| 20260506144948 | 52 | 66 | 1.0 | 3.0 | 0.00 | 0.00 | 0.00 | 46 | 1013.8 |
| 20260506144444 | 52 | 52 | 2.0 | 2.0 | 0.00 | 0.00 | 0.00 | 47 | 1013.6 |
| 20260506143942 | 53 | 61 | 2.0 | 3.0 | 0.00 | 0.00 | 0.00 | 49 | 1013.6 |
| 20260506143439 | 53 | 71 | 1.0 | 3.0 | 0.00 | 0.00 | 0.00 | 48 | 1013.8 |
| 20260506142938 | 52 | 22 | 1.0 | 1.0 | 0.00 | 0.00 | 0.00 | 49 | 1013.7 |
| 20260506142435 | 53 | 357 | 3.0 | 6.0 | 0.00 | 0.00 | 0.00 | 47 | 1013.8 |
| 20260506141933 | 53 | 160 | 2.0 | 6.0 | 0.00 | 0.00 | 0.00 | 46 | 1013.8 |
| 20260506141430 | 53 | 178 | 2.0 | 3.0 | 0.00 | 0.00 | 0.00 | 48 | 1013.5 |
| 20260506140929 | 52 | 100 | 1.0 | 5.0 | 0.00 | 0.00 | 0.00 | 46 | 1013.7 |
| 20260506140426 | 52 | 103 | 0.0 | 2.0 | 0.00 | 0.00 | 0.00 | 45 | 1013.7 |
| 20260506135922 | 51 | 150 | 1.0 | 2.0 | 0.00 | 0.00 | 0.00 | 49 | 1013.7 |
| 20260506135420 | 51 | 160 | 1.0 | 2.0 | 0.00 | 0.00 | 0.00 | 54 | 1013.6 |
| 20260506134915 | 50 | 152 | 1.0 | 2.0 | 0.00 | 0.00 | 0.00 | 53 | 1013.3 |
| 20260506134412 | 50 | 142 | 1.0 | 2.0 | 0.00 | 0.00 | 0.00 | 54 | 1013.3 |
| 20260506133909 | 50 | 114 | 1.0 | 2.0 | 0.00 | 0.00 | 0.00 | 57 | 1013.2 |
| 20260506133406 | 49 | 67 | 1.0 | 2.0 | 0.00 | 0.00 | 0.00 | 59 | 1013.3 |
| 20260506132902 | 48 | 109 | 0.0 | 1.0 | 0.00 | 0.00 | 0.00 | 62 | 1013.1 |
| 20260506132359 | 48 | 91 | 0.0 | 1.0 | 0.00 | 0.00 | 0.00 | 65 | 1013.1 |
| 20260506131858 | 48 | 106 | 0.0 | 1.0 | 0.00 | 0.00 | 0.00 | 65 | 1013.0 |
| 20260506131353 | 47 | 116 | 0.0 | 1.0 | 0.00 | 0.00 | 0.00 | 65 | 1013.1 |
| 20260506130851 | 47 | 122 | 0.0 | 1.0 | 0.00 | 0.00 | 0.00 | 70 | 1012.9 |
| 20260506130347 | 46 | 85 | 0.0 | 1.0 | 0.00 | 0.00 | 0.00 | 75 | 1013.0 |
| 20260506125845 | 46 | 123 | 0.0 | 0.0 | 0.00 | 0.00 | 0.00 | 75 | 1012.9 |
| 20260506125343 | 46 | 94 | 0.0 | 0.0 | 0.00 | 0.00 | 0.00 | 77 | 1012.8 |
| 20260506124841 | 45 | 127 | 0.0 | 0.0 | 0.00 | 0.00 | 0.00 | 75 | 1012.8 |
| 20260506124338 | 45 | 89 | 0.0 | 0.0 | 0.00 | 0.00 | 0.00 | 77 | 1012.8 |
| 20260506123836 | 45 | 88 | 0.0 | 0.0 | 0.00 | 0.00 | 0.00 | 78 | 1012.6 |
| 20260506123334 | 44 | 90 | 0.0 | 0.0 | 0.00 | 0.00 | 0.00 | 77 | 1012.5 |
| 20260506122831 | 44 | 90 | 0.0 | 0.0 | 0.00 | 0.00 | 0.00 | 75 | 1012.4 |
| 20260506122328 | 43 | 90 | 0.0 | 0.0 | 0.00 | 0.00 | 0.00 | 76 | 1012.6 |
| 20260506121826 | 43 | 90 | 0.0 | 0.0 | 0.00 | 0.00 | 0.00 | 77 | 1012.5 |
| 20260506121323 | 42 | 90 | 0.0 | 0.0 | 0.00 | 0.00 | 0.00 | 79 | 1012.3 |
| 20260506120820 | 42 | 91 | 0.0 | 0.0 | 0.00 | 0.00 | 0.00 | 81 | 1012.3 |
| 20260506120318 | 42 | 91 | 0.0 | 0.0 | 0.00 | 0.00 | 0.00 | 82 | 1012.3 |
| 20260506115815 | 41 | 91 | 0.0 | 0.0 | 0.00 | 0.00 | 0.00 | 84 | 1012.2 |
| 20260506115313 | 41 | 91 | 0.0 | 0.0 | 0.00 | 0.00 | 0.00 | 84 | 1011.9 |
| 20260506114810 | 40 | 91 | 0.0 | 0.0 | 0.00 | 0.00 | 0.00 | 85 | 1012.2 |
| 20260506114308 | 39 | 91 | 0.0 | 0.0 | 0.00 | 0.00 | 0.00 | 87 | 1011.9 |
| 20260506113806 | 39 | 90 | 0.0 | 0.0 | 0.00 | 0.00 | 0.00 | 88 | 1012.1 |
| 20260506113304 | 38 | 88 | 0.0 | 0.0 | 0.00 | 0.00 | 0.00 | 89 | 1011.8 |
| 20260506112800 | 38 | 87 | 0.0 | 0.0 | 0.00 | 0.00 | 0.00 | 89 | 1011.8 |
| 20260506112257 | 37 | 87 | 0.0 | 0.0 | 0.00 | 0.00 | 0.00 | 89 | 1011.9 |
| 20260506111755 | 37 | 87 | 0.0 | 0.0 | 0.00 | 0.00 | 0.00 | 89 | 1012.2 |
| 20260506111253 | 37 | 87 | 0.0 | 0.0 | 0.00 | 0.00 | 0.00 | 89 | 1011.7 |
| 20260506110750 | 37 | 87 | 0.0 | 0.0 | 0.00 | 0.00 | 0.00 | 88 | 1011.7 |
| 20260506110247 | 37 | 86 | 0.0 | 0.0 | 0.00 | 0.00 | 0.00 | 88 | 1012.1 |
| 20260506105743 | 37 | 87 | 0.0 | 0.0 | 0.00 | 0.00 | 0.00 | 87 | 1011.9 |
| 20260506105240 | 37 | 87 | 0.0 | 0.0 | 0.00 | 0.00 | 0.00 | 87 | 1011.8 |
| 20260506104738 | 37 | 86 | 0.0 | 0.0 | 0.00 | 0.00 | 0.00 | 87 | 1011.8 |
| 20260506104236 | 37 | 84 | 0.0 | 0.0 | 0.00 | 0.00 | 0.00 | 87 | 1011.6 |
| 20260506103732 | 37 | 85 | 0.0 | 0.0 | 0.00 | 0.00 | 0.00 | 87 | 1011.7 |
| 20260506103230 | 37 | 85 | 0.0 | 0.0 | 0.00 | 0.00 | 0.00 | 86 | 1011.3 |
| 20260506102728 | 38 | 85 | 0.0 | 0.0 | 0.00 | 0.00 | 0.00 | 86 | 1011.2 |
| 20260506102225 | 38 | 84 | 0.0 | 0.0 | 0.00 | 0.00 | 0.00 | 86 | 1011.0 |
| 20260506101722 | 38 | 84 | 0.0 | 0.0 | 0.00 | 0.00 | 0.00 | 85 | 1011.0 |
| 20260506101219 | 38 | 84 | 0.0 | 0.0 | 0.00 | 0.00 | 0.00 | 84 | 1010.9 |
| 20260506100717 | 38 | 84 | 0.0 | 0.0 | 0.00 | 0.00 | 0.00 | 83 | 1011.0 |
| 20260506100215 | 38 | 84 | 0.0 | 0.0 | 0.00 | 0.00 | 0.00 | 82 | 1010.8 |
| 20260506095713 | 38 | 84 | 0.0 | 0.0 | 0.00 | 0.00 | 0.00 | 83 | 1011.0 |
| 20260506095209 | 38 | 84 | 0.0 | 0.0 | 0.00 | 0.00 | 0.00 | 82 | 1011.0 |
| 20260506094706 | 39 | 84 | 0.0 | 0.0 | 0.00 | 0.00 | 0.00 | 82 | 1010.8 |
| 20260506094204 | 39 | 84 | 0.0 | 0.0 | 0.00 | 0.00 | 0.00 | 81 | 1010.9 |
| 20260506093703 | 39 | 84 | 0.0 | 0.0 | 0.00 | 0.00 | 0.00 | 80 | 1011.3 |
| 20260506093159 | 39 | 84 | 0.0 | 0.0 | 0.00 | 0.00 | 0.00 | 81 | 1011.1 |
| 20260506092657 | 39 | 84 | 0.0 | 0.0 | 0.00 | 0.00 | 0.00 | 81 | 1011.0 |
| 20260506092154 | 40 | 82 | 0.0 | 0.0 | 0.00 | 0.00 | 0.00 | 82 | 1011.1 |
| 20260506091652 | 40 | 77 | 0.0 | 0.0 | 0.00 | 0.00 | 0.00 | 82 | 1011.0 |
| 20260506091149 | 40 | 75 | 0.0 | 0.0 | 0.00 | 0.00 | 0.00 | 82 | 1011.0 |
| 20260506090647 | 40 | 75 | 0.0 | 0.0 | 0.00 | 0.00 | 0.00 | 82 | 1010.9 |
| 20260506090143 | 40 | 75 | 0.0 | 0.0 | 0.00 | 0.00 | 0.00 | 79 | 1011.0 |
| 20260506085640 | 39 | 75 | 0.0 | 0.0 | 0.00 | 0.00 | 0.00 | 79 | 1011.0 |
| 20260506085136 | 39 | 75 | 0.0 | 0.0 | 0.00 | 0.00 | 0.00 | 79 | 1011.1 |
| 20260506084633 | 39 | 75 | 0.0 | 0.0 | 0.00 | 0.00 | 0.00 | 80 | 1011.1 |
| 20260506084130 | 40 | 75 | 0.0 | 0.0 | 0.00 | 0.00 | 0.00 | 79 | 1011.0 |
| 20260506083627 | 40 | 75 | 0.0 | 0.0 | 0.00 | 0.00 | 0.00 | 77 | 1010.9 |
| 20260506083125 | 40 | 75 | 0.0 | 0.0 | 0.00 | 0.00 | 0.00 | 76 | 1010.8 |
| 20260506082621 | 39 | 75 | 0.0 | 0.0 | 0.00 | 0.00 | 0.00 | 78 | 1010.8 |
| 20260506082117 | 40 | 75 | 0.0 | 0.0 | 0.00 | 0.00 | 0.00 | 78 | 1010.7 |
| 20260506081615 | 40 | 75 | 0.0 | 0.0 | 0.00 | 0.00 | 0.00 | 77 | 1010.6 |
| 20260506081113 | 40 | 75 | 0.0 | 0.0 | 0.00 | 0.00 | 0.00 | 76 | 1010.8 |
| 20260506080610 | 40 | 75 | 0.0 | 0.0 | 0.00 | 0.00 | 0.00 | 75 | 1010.7 |
| 20260506080107 | 41 | 75 | 0.0 | 0.0 | 0.00 | 0.00 | 0.00 | 74 | 1010.8 |
| 20260506073050 | 43 | 61 | 0.0 | 0.0 | 0.00 | 0.00 | 0.00 | 69 | 1010.6 |
| 20260506072547 | 43 | 60 | 1.0 | 1.0 | 0.00 | 0.00 | 0.00 | 67 | 1010.4 |
| 20260506072045 | 44 | 80 | 0.0 | 1.0 | 0.00 | 0.00 | 0.00 | 64 | 1010.2 |
| 20260506071543 | 44 | 73 | 0.0 | 1.0 | 0.00 | 0.00 | 0.00 | 61 | 1010.3 |
| 20260506071040 | 43 | 81 | 0.0 | 1.0 | 0.00 | 0.00 | 0.00 | 64 | 1010.5 |
| 20260506070537 | 43 | 79 | 0.0 | 0.0 | 0.00 | 0.00 | 0.00 | 67 | 1010.5 |
| 20260506062514 | 47 | 78 | 0.0 | 0.0 | 0.00 | 0.00 | 0.00 | 59 | 1010.4 |
| 20260506062011 | 47 | 73 | 0.0 | 1.0 | 0.00 | 0.00 | 0.00 | 58 | 1010.4 |
| 20260506061507 | 47 | 80 | 1.0 | 2.0 | 0.00 | 0.00 | 0.00 | 56 | 1010.4 |
| 20260506061005 | 47 | 87 | 0.0 | 1.0 | 0.00 | 0.00 | 0.00 | 56 | 1010.3 |
| 20260506060503 | 45 | 58 | 1.0 | 2.0 | 0.00 | 0.00 | 0.00 | 61 | 1010.3 |
| 20260506050932 | 49 | 75 | 1.0 | 1.0 | 0.00 | 0.00 | 0.00 | 56 | 1009.9 |
| 20260506050430 | 49 | 83 | 0.0 | 0.0 | 0.00 | 0.00 | 0.00 | 56 | 1009.9 |
| 20260506044920 | 50 | 80 | 0.0 | 1.0 | 0.00 | 0.08 | 0.08 | 53 | 1009.7 |
| 20260506044418 | 50 | 88 | 0.0 | 0.0 | 0.00 | 0.08 | 0.08 | 56 | 1009.7 |
| 20260506043915 | 50 | 72 | 1.0 | 1.0 | 0.00 | 0.08 | 0.08 | 52 | 1009.8 |
| 20260506043412 | 50 | 85 | 0.0 | 1.0 | 0.00 | 0.08 | 0.08 | 57 | 1009.9 |
| 20260506042910 | 50 | 85 | 0.0 | 1.0 | 0.00 | 0.08 | 0.08 | 58 | 1009.7 |